Regional Weather Roundup
Issued by NWS

Home | Current Version | Previous Version | Text Only | Print | Product List | Glossary Off
Versions: 1 2 3 4 5 6 7 8 9 10 11 12 13 14 15 16 17 18 19 20 21 22 23 24 25 26 27

000
ASUS45 KBOU 070807
RWRCO

WEATHER ROUNDUP FOR COLORADO
NATIONAL WEATHER SERVICE DENVER/BOULDER CO
100 AM MST WED DEC 07 2016

NOTE: "FAIR" INDICATES FEW OR NO CLOUDS BELOW 12000 FEET WITH NO
SIGNIFICANT WEATHER AND/OR OBSTRUCTIONS TO VISIBILITY.

COZ001>005-013-030-031-070900-
...NORTHWEST COLORADO...

CITY           SKY/WX    TMP DP  RH WIND       PRES   REMARKS
CRAIG          CLOUDY    17  11  77 W7        29.87R WCI   8
HAYDEN         MOCLDY    14   9  79 W8        29.82R WCI   3
MEEKER         FLURRIES  19  16  88 W6        29.85R WCI  11
MOUNT WERNER   NOT AVBL
STEAMBOAT SPGS CLOUDY    15  13  90 CALM      29.80R
WALDEN           N/A     10   5  79 S3        29.73S
$$

COZ006>008-011-070900-
...WEST CENTRAL VALLEYS...

CITY           SKY/WX    TMP DP  RH WIND       PRES   REMARKS
GRAND JUNCTION CLOUDY    25  25 100 NE5       29.92R WCI  19
MONTROSE       LGT SNOW  24  21  88 NW10      29.91R FOG     WCI  14
EAGLE          CLOUDY    20  16  84 W5        29.81R WCI  13
RIFLE          CLOUDY    23  20  88 W6        29.88R WCI  16
DELTA          NOT AVBL
NUCLA          NOT AVBL
$$

COZ017>023-064>068-070900-
...SOUTHWEST COLORADO...

CITY           SKY/WX    TMP DP  RH WIND       PRES   REMARKS
DURANGO        FAIR      30  18  60 SW10      29.78R WCI  21
CORTEZ         CLOUDY    30  15  53 NW13      29.87R WCI  20
PAGOSA SPRINGS FAIR      30  18  59 SW10      29.77R WCI  21
TELLURIDE      LGT SNOW  19  12  74 W16G24    29.79R WCI   4
WOLF CREEK PAS LGT SNOW  10  10 100 SW25G40   29.70S WCI -10
$$

COZ009-010-012-014-032>034-037-058>063-070900-
...CENTRAL COLORADO...

CITY           SKY/WX    TMP DP  RH WIND       PRES   REMARKS
ASPEN          LGT SNOW  16  13  88 N9        29.75R FOG     WCI   4
BUENA VISTA    CLOUDY    21  12  66 N8G16     29.67F WCI  12
COPPER MTN     CLOUDY     5  -2  72 MISG      29.60F
BERTHOUD PASS  LGT SNOW  -4 -15  59 NW13G23   29.54S WCI -23
COTTONWOOD PAS LGT SNOW  18  14  86 SE3       29.63S
GUNNISON       LGT SNOW  20  16  84 SW14      29.72R FOG     WCI   7
KREMMLING      CLOUDY    21  14  73 N3        29.76S
LEADVILLE      SNOW       8   4  83 NW5       29.64F VSB 1/2 WCI   0
MONARCH PASS   CLOUDY    10   5  79 SW38G47   29.68R WCI -14
SALIDA         CLOUDY    17  11  78 N10G24    29.78R WCI   4
SUNLIGHT       CLOUDY     3   1  92 SW8G18    29.71F WCI -10
WILKERSON PASS SNOW       5   1  85 NW8G20    29.64R VSB 1/2 WCI  -8
$$

COZ069>075-070900-
...SAN LUIS VALLEY/SANGRE DE CRISTO MOUNTAINS...

CITY           SKY/WX    TMP DP  RH WIND       PRES   REMARKS
ALAMOSA        FAIR      29  18  63 W17G28    29.71R WCI  17
LA VETA PASS   CLOUDY    19  18  93 NE15G33   29.65R WCI   5
SAGUACHE       CLOUDY    25  19  80 NW9       29.71R WCI  15
$$

COZ035-036-038>040-070900-
...NORTHERN COLORADO FRONT RANGE...

CITY           SKY/WX    TMP DP  RH WIND       PRES   REMARKS
DENVER INTL AP LGT SNOW  17  13  84 E8        29.90R FOG     WCI   7
DMNS CITY PARK   N/A     17  15  93 E6G15     29.91S WCI   8
AURORA         LGT SNOW  15  13  92 E3        29.90R FOG
FRONT RANGE AP LGT SNOW  19  18  93 NE6       29.93R WCI  11
ERIE MUNI ARPT LGT SNOW  19  17  90 E5        29.91F WCI  12
BOULDER MUN AP LGT SNOW  19  18  93 CALM      29.91F
CENTENNIAL     LGT SNOW  15  11  83 E5        29.88R FOG     WCI   8
BROOMFIELD     LGT SNOW  19  16  86 E5        29.89F WCI  13
FORT COLLINS   NOT AVBL
LONGMONT       LGT SNOW  21  18  87 E5        29.95S WCI  14
$$

COZ041-046-047-076>085-087-088-070900-
...PIKES PEAK/PALMER DIVIDE AND SOUTHERN FOOTHILLS...

CITY           SKY/WX    TMP DP  RH WIND       PRES   REMARKS
COLO. SPRINGS  LGT SNOW  14   8  77 N16       29.82S WCI  -2
A. F. ACADEMY  LGT SNOW  12   9  85 NW9       29.83R WCI   0
SCHRIEVER AFB  NOT AVBL
ELLICOTT       LGT RAIN N/A N/A N/A NE16G25     N/A
FALCON         LGT SNOW  11   6  80 N10       29.80R WCI  -3
FORT CARSON    FAIR      16   9  73 N15       29.81R WCI   1
LIMON          CLOUDY    17  11  77 NE12      29.88R WCI   4
MONUMENT HILL  FLURRIES  10   7  85 N5        29.83R WCI   2
TRINIDAD       CLOUDY    16  -1  47 N5        29.77R WCI   9
$$

COZ042>045-048>051-090-091-070900-
...NORTHEAST COLORADO...

CITY           SKY/WX    TMP DP  RH WIND       PRES   REMARKS
GREELEY ARPT   LGT SNOW  19  16  88 E8        29.94F FOG     WCI   9
AKRON          LGT SNOW  18  14  84 E10       29.96R VSB 1   WCI   6
BURLINGTON     CLOUDY    24   0  35 E13       29.91F WCI  12
WRAY           LGT SNOW  23  21  93 NE7       30.01R VSB 1   WCI  15
STERLING       LGT SNOW  19  18  93 NE9       30.00R WCI   9
HOLYOKE        FAIR      23  12  63 NE10      30.04R WCI  12
FORT MORGAN    LGT SNOW  19  17  92 NE7       29.98R WCI   9
$$

COZ086-089-092>099-070900-
...SOUTHEAST COLORADO...

CITY           SKY/WX    TMP DP  RH WIND       PRES   REMARKS
PUEBLO         FAIR      19   1  45 N9        29.85R WCI   8
LA JUNTA       FAIR      15   3  59 S5        29.81F WCI   8
LAMAR          FAIR      17   3  54 SE18      29.85F WCI   1
SPRINGFIELD      N/A     13   5  70 SE10      29.84S WCI   0
$$




USA.gov is the U.S. government's official web portal to all federal, state and local government web resources and services.